PEGASUS DEB

Satellite information

Favourite Embed

Satellite Type and Status

DEBRISIN ORBIT

Key statistics

Satellite PEGASUS DEB at a glance.

Uptime

11372

Days in orbit

Revolutions

≈ 14.6

Per day

Orbit

LEO

Low Earth Orbit

Inclination

82.2

Latest

Satellite identification and parameters

Extended collection of information and parameters for PEGASUS DEB.

Object identification

Identified? True

Debris? True

Object name: PEGASUS DEB

International designator: 1994-029ADD

Object number (NORAD): 24996

Object ID (CCSDS): 24996

Country: UNITED STATES OF AMERICA (US)

Current information (Y/N): Y

RCS size: SMALL

Orbital parameters

Period: 98.733 minutes

Inclination: 82.175 deg

SMA: 7076.215 km

Apoapsis: 859.531 km

Periapsis: 536.629 km

RAAN: 341.2744 deg

Eccentricy: 0.022816

Argument of periapsis: 78.5507 deg

Mean anomaly: 284.1221 deg

Mean motion: 14.58482484 rev/day

Mean motion (dot): 0.00005843 rev/day2

B* drag term: 0.00087167 1/REarth

Two-line elements (TLE)

Creation date: July 6, 2025, 6:05 p.m.

Reference frame: TEME

Reference center: EARTH

Epoch: July 6, 2025, 9:47 a.m. UTC

TLE line 0: 0 PEGASUS DEB

TLE line 1: 1 24996U 94029ADD 25187.40826517 .00005843 00000-0 87167-3 0 9992

TLE line 2: 2 24996 82.1750 341.2744 0228160 78.5507 284.1221 14.58482484446890

Live tracking on map

Real-time ground track for satellite PEGASUS DEB.

In-orbit conjunctions

A list of the most updated potential collisions computed for object PEGASUS DEB.

Target Orbit TCA Probability of collision Miss distance Type
COSMOS 2251 DEB LEO 2025-06-03 15:57:54 0.0001546696 114.0 (m) DEBRIS
CZ-6A DEB SSO 2024-12-12 04:36:10 0.0001778168 87.0 (m) DEBRIS
COSMOS 2506 DEB SSO 2024-11-13 05:32:20 0.00136162 236.0 (m) DEBRIS
NOAA 16 DEB SSO 2024-11-01 14:23:45 0.0001218089 95.0 (m) DEBRIS

Associated space launch

PEGASUS DEB was lifted into orbit during the mission ‘Pegasus HAPS | Space Test Experiments Platform 2 (STEP-2)’, on board a Pegasus HAPS space rocket.

The launch took place on May 19, 1994, 5:03 p.m. from Edwards Air Force Base.

For more information about the launch, click the button.

Launch to space Pegasus HAPS | Space Test Experiments Platform 2 (STEP-2)
Pegasus HAPS | Space Test Experiments Platform 2 (STEP-2)

Agency: N/A

Status: Launch Successful

Launch date: May 19, 1994, 5:03 p.m. UTC

Rocket: Pegasus HAPS

Launch pad: Edwards Air Force Base

Location: Air launch to orbit

...

Latest news about this satellite

There are no fresh news available about this satellite. Check back as we update our databases every day.


Newsletter sign-up

Weekly statistics, charts and insights to help you stay on top of the space industry.